Troyes, France

11:08 AM CEST on July 21, 2017 (GMT +0200)
Barberey

Weather History for LFQB - March, 2014

Change the Weather History Date:

Friday, March 28, 2014

  Actual Average Record
Temperature  
Mean Temperature 44 °F -  
Max Temperature 62 °F 58 °F 71 °F (2003)
Min Temperature 26 °F 39 °F 23 °F (2004)
Degree Days  
Heating Degree Days 21    
Moisture  
Dew Point 33 °F    
Average Humidity 68    
Maximum Humidity 95    
Minimum Humidity 26    
Precipitation  
Precipitation 0.01 in - - ()
Sea Level Pressure  
Sea Level Pressure 29.96 in    
Wind  
Wind Speed 3 mph ()    
Max Wind Speed 7 mph    
Max Gust Speed -    
Visibility 5.4 miles    
Events      
Averages and records for this station are not official NWS values.
T = Trace of Precipitation, MM = Missing Value Source: Averaged Metar Reports

Daily Weather History Graph

Daily Weather History Graph

Search for Another Location

Airport or City:

Trip Planner

Search our weather history database for the weather conditions in past years. The results will help you decide how hot, cold, wet, or windy it might be!

Date:

Astronomy

Mar. 28, 2014 Rise Set
Actual Time 6:30 AM CET 7:08 PM CET
Civil Twilight 5:59 AM CET 7:39 PM CET
Nautical Twilight 5:21 AM CET 8:17 PM CET
Astronomical Twilight 4:42 AM CET 8:56 PM CET
Moon 5:03 AM CET (3/28) 4:37 PM CET (3/28)
Length of Visible Light 13h 40m
Length of Day
12h 37m
Waning Crescent, 7% of the Moon is Illuminated
Mar 28
Waning Crescent
Mar 30
New
Apr 7
First Quarter
Apr 15
Full
Apr 22
Last Quarter

Hourly Weather History & Observations

Time (CET) Temp. Windchill Dew Point Humidity Pressure Visibility Wind Dir Wind Speed Gust Speed Precip Events Conditions
12:00 AM 31 °F - 29 °F 90% 29.94 in 3 mi SSE 1.2 mph - -   Clear
12:00 AM 32.0 °F - 28.4 °F 87% 29.89 in 3.1 mi SSE 1.2 mph - N/A   Mist
12:30 AM 30.2 °F 25.4 °F 26.6 °F 86% 29.89 in - South 4.6 mph - N/A   Mist
1:00 AM 32 °F - 30 °F 89% 29.94 in 3 mi SSE 3.5 mph - -   Clear
1:00 AM 32.0 °F 28.7 °F 30.2 °F 93% 29.89 in 3.1 mi SSE 3.5 mph - N/A   Mist
1:30 AM 33.8 °F 30.8 °F 30.2 °F 87% 29.92 in 3.1 mi SE 3.5 mph - N/A   Mist
2:00 AM 31 °F - 28 °F 84% 29.94 in 3 mi South 4.6 mph - -   Clear
2:00 AM 30.2 °F 25.4 °F 28.4 °F 93% 29.89 in 3.1 mi South 4.6 mph - N/A   Mist
2:30 AM 33.8 °F 29.6 °F 30.2 °F 87% 29.92 in 3.7 mi SE 4.6 mph - N/A   Unknown
3:00 AM 31 °F - 28 °F 84% 29.94 in 3 mi South 3.5 mph - -   Clear
3:00 AM 30.2 °F 26.7 °F 28.4 °F 93% 29.92 in 3.1 mi South 3.5 mph - N/A   Mist
3:30 AM 32.0 °F 28.7 °F 30.2 °F 93% 29.89 in 3.1 mi SSE 3.5 mph - N/A   Mist
4:00 AM 32 °F - 29 °F 86% 29.94 in 3 mi SE 5.8 mph - -   Clear
4:00 AM 32.0 °F 26.4 °F 30.2 °F 93% 29.92 in 3.1 mi SE 5.8 mph - N/A   Mist
4:30 AM 28.4 °F - 26.6 °F 93% 29.92 in 2.8 mi ESE 2.3 mph - N/A   Mist
5:00 AM 27 °F - 25 °F 90% 29.96 in 3 mi South 2.3 mph - -   Mist
5:00 AM 26.6 °F - 24.8 °F 93% 29.92 in - South 2.3 mph - N/A   Mist
5:30 AM 28.4 °F 21.2 °F 26.6 °F 93% 29.92 in - South 6.9 mph - N/A   Mist
6:00 AM 29 °F - 28 °F 95% 29.97 in 4 mi SSE 4.6 mph - -   Scattered Clouds
6:00 AM 30.2 °F 25.4 °F 28.4 °F 93% 29.92 in 3.1 mi SSE 4.6 mph - N/A   Mist
6:30 AM 30.2 °F 26.7 °F 28.4 °F 93% 29.95 in - Variable 3.5 mph - N/A   Mist
7:00 AM 30 °F - 29 °F 95% 29.98 in 5 mi SSE 4.6 mph - -   Scattered Clouds
7:00 AM 30.2 °F 25.4 °F 28.4 °F 93% 29.95 in 3.7 mi SSE 4.6 mph - N/A   Unknown
7:30 AM 32.0 °F 28.7 °F 30.2 °F 93% 29.95 in 3.7 mi SE 3.5 mph - N/A   Unknown
8:00 AM 34 °F - 30 °F 81% 30.00 in 5 mi SE 2.3 mph - -   Scattered Clouds
8:00 AM 33.8 °F - 30.2 °F 87% 29.98 in 3.1 mi SE 2.3 mph - N/A   Mist
8:30 AM 35.6 °F 32.8 °F 32.0 °F 87% 29.98 in 3.1 mi SSW 3.5 mph - N/A   Mist
9:00 AM 40 °F - 35 °F 75% 30.00 in 6 mi South 3.5 mph - -   Clear
9:00 AM 39.2 °F 37.0 °F 35.6 °F 87% 29.98 in 3.7 mi South 3.5 mph - N/A   Unknown
9:30 AM 41.0 °F 37.1 °F 35.6 °F 81% 29.98 in 5.0 mi South 5.8 mph - N/A   Unknown
10:00 AM 47 °F - 36 °F 56% 30.00 in 6 mi South 3.5 mph - -   Clear
10:00 AM 46.4 °F 45.2 °F 35.6 °F 66% 29.98 in 6.2 mi South 3.5 mph - N/A   Unknown
10:30 AM 50.0 °F - 37.4 °F 62% 29.98 in 6.2 mi ESE 3.5 mph - N/A   Unknown
11:00 AM 54 °F - 40 °F 47% 30.00 in 6 mi ENE 3.5 mph - -   Clear
11:00 AM 53.6 °F - 39.2 °F 58% 29.98 in 5.6 mi Variable 3.5 mph - N/A   Unknown
11:30 AM 55.4 °F - 41.0 °F 58% 29.98 in 5.6 mi ESE 3.5 mph - N/A   Unknown
12:00 PM 57 °F - 38 °F 38% 29.98 in 7 mi SSE 3.5 mph - -   Clear
12:00 PM 57.2 °F - 39.2 °F 51% 29.98 in 6.2 mi SSE 3.5 mph - N/A   Unknown
12:30 PM 59.0 °F - 37.4 °F 45% 29.98 in 6.2 mi Variable 2.3 mph - N/A   Unknown
1:00 PM 59 °F - 37 °F 33% 29.98 in 9 mi SE 2.3 mph - -   Scattered Clouds
1:00 PM 59.0 °F - 37.4 °F 45% 29.98 in 6.2 mi Variable 2.3 mph - N/A   Unknown
1:30 PM 59.0 °F - 37.4 °F 45% 29.98 in 6.2 mi WNW 4.6 mph - N/A   Unknown
2:00 PM 60 °F - 37 °F 31% 29.97 in 9 mi SW 4.6 mph - -   Scattered Clouds
2:00 PM 60.8 °F - 37.4 °F 42% 29.95 in 6.2 mi SW 4.6 mph - N/A   Unknown
2:30 PM 60.8 °F - 37.4 °F 42% 29.95 in 6.2 mi Variable 2.3 mph - N/A   Unknown
3:00 PM 61 °F - 35 °F 26% 29.96 in 11 mi SE 4.6 mph - -   Scattered Clouds
3:00 PM 60.8 °F - 35.6 °F 39% 29.95 in 6.2 mi SE 4.6 mph - N/A   Unknown
3:30 PM 60.8 °F - 35.6 °F 39% 29.95 in 6.2 mi SSE 6.9 mph - N/A   Unknown
4:00 PM 62 °F - 36 °F 26% 29.94 in 11 mi South 6.9 mph - -   Clear
4:00 PM 62.6 °F - 35.6 °F 37% 29.95 in 6.2 mi South 6.9 mph - N/A   Unknown
4:30 PM 62.6 °F - 35.6 °F 37% 29.95 in 6.2 mi Variable 3.5 mph - N/A   Unknown
5:00 PM 61 °F - 35 °F 26% 29.95 in 12 mi SW 3.5 mph - -   Clear
5:00 PM 60.8 °F - 35.6 °F 39% 29.95 in 6.2 mi SW 3.5 mph - N/A   Unknown
5:30 PM 59.0 °F - 39.2 °F 48% 29.95 in 6.2 mi WSW 3.5 mph - N/A   Unknown
6:00 PM 60 °F - 36 °F 29% 29.96 in 12 mi NNW 4.6 mph - -   Clear
6:00 PM 59.0 °F - 35.6 °F 42% 29.95 in 6.2 mi NNW 4.6 mph - N/A   Unknown
6:30 PM 60.8 °F - 33.8 °F 36% 29.95 in 6.2 mi North 3.5 mph - N/A   Unknown
7:00 PM 58 °F - 35 °F 30% 29.97 in 11 mi NNE 3.5 mph - -   Clear
7:00 PM 59.0 °F - 35.6 °F 42% 29.95 in 6.2 mi NNE 3.5 mph - N/A   Unknown
7:30 PM 50.0 °F - 35.6 °F 58% 29.95 in 6.2 mi Variable 2.3 mph - N/A   Unknown
8:00 PM 47 °F - 36 °F 56% 29.99 in 7 mi NW 2.3 mph - -   Clear
8:00 PM 46.4 °F - 35.6 °F 66% 29.98 in 6.2 mi NW 2.3 mph - N/A   Unknown
8:30 PM 42.8 °F - 35.6 °F 76% 29.98 in 6.2 mi Calm Calm - N/A   Unknown
9:00 PM 43 °F - 36 °F 67% 30.01 in 6 mi Calm Calm - -   Clear
9:00 PM 42.8 °F - 35.6 °F 76% 29.98 in 6.2 mi Calm Calm - N/A   Unknown
9:30 PM 39.2 °F - 35.6 °F 87% 29.98 in 5.0 mi SSE 2.3 mph - N/A   Unknown
10:00 PM 41 °F - 36 °F 74% 30.02 in 4 mi South 3.5 mph - -   Clear
10:00 PM 41.0 °F 39.0 °F 35.6 °F 81% 30.01 in 4.3 mi South 3.5 mph - N/A   Unknown
10:30 PM 39.2 °F 37.0 °F 33.8 °F 81% 29.98 in 3.7 mi SSE 3.5 mph - N/A   Unknown
11:00 PM 38 °F - 35 °F 83% 30.03 in 4 mi South 4.6 mph - -   Clear
11:00 PM 37.4 °F 33.8 °F 35.6 °F 93% 30.01 in 3.7 mi South 4.6 mph - N/A   Unknown
11:30 PM 35.6 °F 32.8 °F 33.8 °F 93% 30.01 in 3.1 mi South 3.5 mph - N/A   Mist